[[{"header":{"parameterUnit":"m.s-1","parameterCategory":1,"la1":30.2992,"la2":30.254,"lo1":-89.0895,"lo2":-89.0443,"dy":0.0025,"dx":0.0025,"nx":19,"ny":19,"refTime":"2026-05-01T03:00:00:Z","depth":0,"parameterNumber":2,"parameterNumberName":"U-component_of_WINDS"},"data":[0,0,0,-0.227,-0.2271,-0.2332,-0.2333,-0.2413,-0.2414,0,0,0,0,0,0,0,0,0,0,0,-0.2253,-0.2254,-0.227,-0.2271,-0.2332,-0.2333,-0.2413,-0.2414,0,0,0,0,0,0,0,0,0,0,0,-0.2253,-0.2253,-0.2254,-0.2272,-0.2332,-0.2333,-0.2413,-0.2366,0,0,0,0,0,0,0,0,0,0,-0.2306,-0.2292,-0.2253,-0.2254,-0.2272,-0.2332,-0.2333,-0.2364,-0.2369,-0.2386,0,-0.2402,0,-0.2409,-0.2419,-0.242,0,0,0,-0.2271,-0.2288,-0.2303,-0.2254,-0.2273,-0.2332,-0.2305,-0.2367,-0.2373,-0.2393,-0.2403,-0.2406,-0.241,-0.242,-0.242,-0.2521,-0.2522,0,0,-0.2267,-0.2265,-0.2299,-0.2307,-0.2297,-0.2303,-0.2307,-0.237,-0.2381,-0.2403,-0.2408,-0.2412,-0.242,-0.2421,-0.2521,-0.2521,0,0,0,-0.2258,-0.2263,-0.2276,-0.2303,-0.2314,-0.2304,-0.2309,-0.2378,-0.2383,-0.2409,-0.2413,-0.2421,-0.2422,-0.252,-0.2521,-0.2543,0,0,0,-0.2256,-0.2257,-0.2275,-0.2274,-0.2313,-0.2347,-0.2315,-0.2378,-0.2385,-0.2412,-0.2421,-0.2423,-0.252,-0.2521,-0.2542,-0.2555,0,0,0,-0.2249,-0.2256,-0.2265,-0.2274,-0.23,-0.2346,-0.2354,-0.238,-0.2388,-0.242,-0.2423,-0.2519,-0.252,-0.254,-0.2552,-0.2581,0,0,0,-0.224,-0.2285,-0.2266,-0.2317,-0.2299,-0.2358,-0.2354,-0.2398,-0.2428,-0.2421,-0.252,-0.2521,-0.2539,-0.2551,-0.2579,-0.2605,-0.2616,0,0,-0.2296,-0.2292,-0.2322,-0.2307,-0.2369,-0.2349,-0.2415,-0.2445,-0.2451,-0.2497,-0.25,-0.2542,-0.2552,-0.2581,-0.2672,-0.2681,0,0,0,-0.2339,-0.2361,-0.2378,-0.2406,-0.2429,-0.245,-0.247,-0.248,-0.252,-0.2474,-0.256,-0.2566,-0.2583,-0.2595,-0.2602,-0.2617,-0.2526,-0.2526,-0.2526,-0.2416,-0.2419,-0.2469,-0.248,-0.2506,-0.2525,-0.2547,-0.2565,-0.2562,-0.2582,-0.2597,-0.2652,-0.2666,-0.2672,-0.2687,-0.2609,-0.261,-0.261,-0.261,-0.2498,-0.253,-0.2522,-0.2568,-0.2571,-0.261,-0.263,-0.2625,-0.2662,-0.2641,-0.2656,-0.2634,-0.268,-0.2694,-0.2611,-0.2611,-0.2611,-0.2611,-0.2611,-0.255,-0.2565,-0.2577,-0.2616,-0.2646,-0.2654,-0.2689,-0.2691,-0.2693,-0.2707,-0.2723,-0.2722,-0.2723,-0.2714,-0.2714,-0.2714,-0.2715,-0.2715,-0.2715,-0.26,-0.2611,-0.2641,-0.2667,-0.2684,-0.2707,-0.2725,-0.2742,-0.2762,-0.276,-0.276,-0.2755,-0.2684,-0.2666,-0.2718,-0.2717,-0.2717,-0.2717,-0.2717,-0.2685,-0.2665,-0.2711,-0.2728,-0.2758,-0.2787,-0.2787,-0.2822,-0.2836,-0.2853,-0.2844,-0.279,-0.2787,-0.2782,-0.2768,-0.2842,-0.2842,-0.2842,-0.2842,-0.2729,-0.2727,-0.2773,-0.28,-0.2826,-0.283,-0.2882,-0.2895,-0.2906,-0.2915,-0.2904,-0.2885,-0.2879,-0.2879,-0.2872,-0.2859,-0.2955,-0.2955,-0.2955,-0.2782,-0.2782,-0.2826,-0.2835,-0.2858,-0.2878,-0.2926,-0.2958,-0.2966,-0.2959,-0.2922,-0.2918,-0.2886,-0.2876,-0.2871,-0.2859,-0.2835,0,0]},{"header":{"parameterUnit":"m.s-1","parameterCategory":1,"la1":30.2992,"la2":30.254,"lo1":-89.0895,"lo2":-89.0443,"dy":0.0025,"dx":0.0025,"nx":19,"ny":19,"refTime":"2026-05-01T03:00:00:Z","depth":0,"parameterNumber":3,"parameterNumberName":"V-component_of_WINDS"},"data":[0,0,0,-6.2707,-6.271,-6.2872,-6.2873,-6.3093,-6.3095,0,0,0,0,0,0,0,0,0,0,0,-6.267,-6.2672,-6.2706,-6.2711,-6.2872,-6.2873,-6.3092,-6.3095,0,0,0,0,0,0,0,0,0,0,0,-6.2669,-6.2671,-6.2674,-6.2711,-6.2872,-6.2873,-6.3092,-6.2964,0,0,0,0,0,0,0,0,0,0,-6.2805,-6.2782,-6.2671,-6.2674,-6.2712,-6.2872,-6.2873,-6.2958,-6.2972,-6.3026,0,-6.308,0,-6.3091,-6.3111,-6.3112,0,0,0,-6.2701,-6.2771,-6.2805,-6.2674,-6.2714,-6.2872,-6.2797,-6.2966,-6.2982,-6.3046,-6.3083,-6.3091,-6.3095,-6.3112,-6.3114,-6.3461,-6.3463,0,0,-6.2693,-6.2704,-6.2793,-6.2816,-6.2795,-6.2792,-6.2802,-6.2975,-6.3016,-6.3084,-6.3095,-6.3099,-6.3114,-6.3116,-6.346,-6.3462,0,0,0,-6.2673,-6.2698,-6.2727,-6.2807,-6.2835,-6.2796,-6.2808,-6.3008,-6.3017,-6.3098,-6.3101,-6.3115,-6.3118,-6.3457,-6.346,-6.3574,0,0,0,-6.2667,-6.2687,-6.2724,-6.2733,-6.2833,-6.2924,-6.2837,-6.3005,-6.3024,-6.31,-6.3115,-6.3121,-6.3455,-6.3459,-6.3566,-6.3625,0,0,0,-6.2655,-6.2685,-6.2713,-6.2733,-6.2803,-6.2921,-6.294,-6.3009,-6.3027,-6.3112,-6.3121,-6.3454,-6.3458,-6.3559,-6.3614,-6.3721,0,0,0,-6.2645,-6.281,-6.2715,-6.29,-6.2802,-6.2991,-6.2938,-6.3078,-6.3165,-6.3117,-6.3455,-6.346,-6.3557,-6.3606,-6.3713,-6.3813,-6.3856,0,0,-6.2859,-6.2836,-6.2944,-6.2864,-6.3074,-6.2966,-6.3191,-6.3258,-6.3254,-6.3392,-6.34,-6.3569,-6.3613,-6.3719,-6.4092,-6.4126,0,0,0,-6.3016,-6.3094,-6.3147,-6.3232,-6.3289,-6.3342,-6.3374,-6.3398,-6.3515,-6.3328,-6.3636,-6.3662,-6.3723,-6.377,-6.3799,-6.3851,-6.3482,-6.3482,-6.3482,-6.3335,-6.3324,-6.3502,-6.351,-6.3592,-6.3624,-6.3689,-6.3727,-6.3689,-6.3762,-6.3803,-6.4031,-6.4087,-6.4108,-6.4163,-6.3855,-6.3855,-6.3856,-6.3856,-6.3648,-6.3756,-6.3705,-6.3859,-6.3845,-6.3973,-6.4009,-6.3978,-6.4094,-6.3999,-6.4053,-6.395,-6.4146,-6.4193,-6.3864,-6.3863,-6.3862,-6.3861,-6.386,-6.3856,-6.3906,-6.3935,-6.4056,-6.415,-6.4151,-6.4266,-6.4248,-6.4232,-6.4285,-6.4326,-6.4324,-6.4319,-6.4306,-6.4307,-6.4307,-6.4308,-6.4309,-6.4309,-6.406,-6.4089,-6.4189,-6.4264,-6.4316,-6.4382,-6.4416,-6.4465,-6.4515,-6.4493,-6.4493,-6.4448,-6.4168,-6.4098,-6.4321,-6.4319,-6.4318,-6.4316,-6.4316,-6.4381,-6.4306,-6.446,-6.4513,-6.4599,-6.4694,-6.467,-6.4773,-6.4811,-6.4868,-6.4811,-6.4608,-6.4582,-6.4558,-6.45,-6.4814,-6.4814,-6.4814,-6.4814,-6.4556,-6.4542,-6.4696,-6.4781,-6.4862,-6.4857,-6.5029,-6.5057,-6.5072,-6.5095,-6.5047,-6.4968,-6.4945,-6.4933,-6.4901,-6.4847,-6.5242,-6.5242,-6.5243,-6.4752,-6.4745,-6.4897,-6.4915,-6.4981,-6.5037,-6.5199,-6.5297,-6.5298,-6.5259,-6.5112,-6.5094,-6.4967,-6.4926,-6.4883,-6.4835,-6.4735,0,0]}]]